www.pogodaiklimat.ru

Погода и климат >> Архив погоды >> Канада >> Grand Etang


ПОГОДА в Grand Etang

  • Прогноз погоды в Grand Etang
  • Монитор погоды в Grand Etang
  • Климат города

АРХИВ ПОГОДЫ в Grand Etang

Время (UTC), дата Ветер
(напр.,м/с)
 
Видим.   Явления Облачность Т
(С)
Тd
(С)
f
(%)
Тe
(С)
Тes
(С)
Комфортность P
(гПа)
Po
(гПа)
Тmin
(С)
Tmax
(С)
R
(мм)
R24
(мм)
S
(см)
06 19.04 ЮВ 3 16 км слаб. снег 10/0 2000 м
[]
-24.5 -27.0 80 -33 -33 опасность
обморожения
1009.7 1003.3 -26.9 -20.2
09 19.04 В 4 16 км ясно -27.7 -30.7 75 -39 -39 опасность
обморожения
1010.4 1004.0
12 19.04 В 6 16 км ясно -28.2 -31.2 75 -41 -39 опасность
обморожения
1011.5 1005.0 -28.4 -20.2
15 19.04 В 6 16 км ясно -26.3 -29.1 77 -39 -32 опасность
обморожения
1012.3 1005.8
18 19.04 В 5 16 км ясно -23.5 -26.0 80 -35 -28 опасность
обморожения
1013.5 1007.1 -28.4 -23.5
21 19.04 В 5 16 км ясно -21.5 -23.8 82 -32 -31 опасность
обморожения
1015.1 1008.6
00 20.04 В 5 16 км ясно -21.8 -24.1 82 -32 -32 опасность
обморожения
1016.4 1009.9 -28.4 -21.1
03 20.04 СВ 4 16 км ясно -24.0 -26.4 80 -33 -33 опасность
обморожения
1017.4 1010.9
06 20.04 СВ 4 16 км ясно -26.9 -29.7 77 -37 -37 опасность
обморожения
1018.1 1011.6 -28.4 -21.1
09 20.04 СВ 3 16 км 10/10 100 м
[]
-27.3 -30.2 76 -37 -37 опасность
обморожения
1019.4 1012.9
12 20.04 В 3 16 км слаб. снег 10/10 300 м
[]
-22.1 -24.4 82 -30 -30 1020.1 1013.6 -28.3 -21.1
15 20.04 СВ 5 16 км 3/3 300 м
[]
-22.6 -25.0 81 -33 -27 опасность
обморожения
1021.0 1014.5
18 20.04 СВ 6 16 км ясно -21.0 -23.3 82 -32 -26 опасность
обморожения
1021.9 1015.4 -28.3 -21.0
21 20.04 СВ 6 16 км слаб. снег ясно -17.3 -19.3 84 -27 -26 1022.9 1016.4
00 21.04 СВ 6 16 км 10/10 1000 м
[]
-16.7 -18.6 85 -27 -27 1024.1 1017.7 -28.3 -16.4
03 21.04 СВ 5 16 км 10/10 600 м
[]
-18.4 -20.3 85 -28 -28 1025.3 1018.8
06 21.04 С 4 16 км 10/10 600 м
[]
-20.8 -23.1 82 -30 -30 1026.4 1019.9 -28.3 -16.4
09 21.04 С 4 16 км ясно -24.3 -26.6 81 -34 -34 опасность
обморожения
1027.1 1020.6
12 21.04 С 6 16 км ясно -26.4 -29.0 79 -39 -36 опасность
обморожения
1027.7 1021.2 -26.6 -16.4
15 21.04 СЗ 5 16 км ясно -25.3 -28.0 78 -37 -29 опасность
обморожения
1027.7 1021.2
18 21.04 С 5 3200 м дым 5/5 50 м
[]
-23.3 -25.9 79 -34 -31 опасность
обморожения
1027.9 1021.4 -26.7 -20.6
21 21.04 С 6 16 км ясно -20.3 -22.5 83 -31 -30 опасность
обморожения
1028.7 1022.2
00 22.04 СЗ 4 16 км ясно -20.1 -22.4 82 -29 -29 1028.7 1022.2 -26.7 -20.1
03 22.04 СЗ 7 16 км 10/10 600 м
[]
-21.2 -23.4 82 -33 -33 опасность
обморожения
1028.6 1022.1
06 22.04 СЗ 8 14 км слаб. снег 9/0 2000 м
[]
-22.6 -25.0 81 -36 -36 опасность
обморожения
1028.2 1021.7 -26.7 -19.6 6
09 22.04 С 7 14 км слаб. снег 9/0 2000 м
[]
-23.9 -26.3 80 -37 -37 опасность
обморожения
1027.7 1021.2
12 22.04 С 7 16 км 3/0 2000 м
[]
-25.4 -28.0 79 -38 -37 опасность
обморожения
1027.4 1020.9 -26.0 -19.6
15 22.04 С 4 16 км 10/10 600 м
[]
-21.8 -24.1 82 -31 -31 опасность
обморожения
1027.4 1020.9
18 22.04 СВ 4 16 км 10/10 600 м
[]
-18.4 -20.7 82 -27 -27 1028.1 1021.6 -26.0 -18.4
21 22.04 СВ 3 16 км 10/10 600 м
[]
-17.9 -20.7 79 -24 -24 1028.9 1022.4
00 23.04 СВ 3 16 км ясно -19.5 -21.8 82 -26 -26 1029.2 1022.7 -26.0 -17.7
03 23.04 С 4 16 км ясно -21.5 -23.3 85 -31 -31 опасность
обморожения
1029.3 1022.8
06 23.04 С 6 16 км слаб. снег 10/10 1000 м
[]
-20.4 -22.6 82 -31 -31 опасность
обморожения
1028.9 1022.4 -26.0 -17.7 9
09 23.04 СЗ 8 12 км 10/10 1500 м
[]
-23.3 -25.7 81 -37 -37 опасность
обморожения
1028.6 1022.1
12 23.04 С 8 2800 м слаб. снег 10/10 1500 м
[]
-22.9 -25.3 81 -36 -36 опасность
обморожения
1027.9 1021.4 -23.5 -17.7
15 23.04 С 8 1600 м дымка 5/5 50 м
[]
-21.0 -23.2 82 -34 -33 опасность
обморожения
1027.8 1021.3
18 23.04 С 10 1600 м дымка 9/9 100 м
[]
-16.9 -19.0 84 -30 -30 1027.5 1021.0 -23.5 -16.9
21 23.04 С 9 9000 м слаб. снег ясно -16.5 -19.0 81 -29 -28 1027.9 1021.4
00 24.04 СЗ 5 16 км ясно -18.3 -21.0 79 -28 -28 1028.4 1021.9 -23.5 -16.1
03 24.04 СЗ 7 16 км 10/10 300 м
[]
-20.7 -23.0 82 -32 -32 опасность
обморожения
1028.0 1021.5
06 24.04 СЗ 6 16 км 5/0
[]
-24.7 -27.1 80 -37 -37 опасность
обморожения
1027.8 1021.3 -24.7 -16.1 18
09 24.04 СЗ 6 4000 м слаб. снег 5/5 50 м
[]
-25.3 -27.9 79 -38 -38 опасность
обморожения
1027.8 1021.3
12 24.04 З 6 16 км 10/10 200 м
[]
-23.4 -25.7 81 -35 -35 опасность
обморожения
1027.7 1021.2 -26.5 -16.1
15 24.04 З 5 9000 м дымка 10/10 300 м
[]
-22.7 -25.0 81 -34 -34 опасность
обморожения
1027.2 1020.7
18 24.04 ЮЗ 4 16 км 10/10 200 м
[]
-22.0 -24.3 82 -32 -32 опасность
обморожения
1026.2 1019.7 -26.5 -22.0
21 24.04 З 3 16 км 10/10 200 м
[]
-20.4 -22.4 84 -28 -28 1025.9 1019.4
00 25.04 З 2 16 км ясно -21.0 -23.2 82 -26 -26 1025.0 1018.5 -26.5 -20.3
03 25.04 ЮВ 4 16 км ясно -22.4 -24.7 81 -31 -31 опасность
обморожения
1024.3 1017.8
06 25.04 Ю 4 16 км ясно -24.0 -26.5 80 -34 -34 опасность
обморожения
1023.3 1016.8 -26.5 -20.3
09 25.04 Ю 3 16 км ясно -26.5 -29.4 76 -35 -35 опасность
обморожения
1022.9 1016.4
12 25.04 Ю 5 16 км ясно -27.7 -30.7 75 -39 -36 опасность
обморожения
1022.1 1015.6 -28.5 -20.3
15 25.04 Ю 6 9000 м дымка ясно -24.6 -27.3 78 -36 -30 опасность
обморожения
1021.0 1014.5
18 25.04 Ю 8 11 км ясно -21.4 -23.6 82 -34 -31 опасность
обморожения
1019.6 1013.1 -28.5 -21.4
21 25.04 Ю 9 11 км ясно -18.5 -20.4 85 -31 -31 опасность
обморожения
1018.4 1011.9
00 26.04 Ю 7 16 км ясно -17.4 -19.2 86 -28 -28 1016.2 1009.8 -28.5 -17.3
03 26.04 ЮВ 6 16 км 3/0
[]
-20.1 -22.2 83 -31 -31 опасность
обморожения
1014.6 1008.2

 

Местоположение метеостанции Grand Etang (Канада): широта 46.55 долгота -61.05 высота над уровнем моря 13 м.

В архиве по умолчанию представлена погода в Grand Etang за последнюю неделю. Архивные данные за месяц целиком и за предыдущие месяцы, начиная с января 2011 года, Вы можете получить, выбрав интересующий диапазон дат из раскрывающегося списка и нажав кнопку "Ввод!".

Внимание! Время в таблицах - всемирное. Для получения местного времени необходимо прибавить поправку, которая в Grand Etang равна -4 ч.

Смотрите также архив погоды в соседних городах и на ближайших метеорологических станциях:

Погода в Cheticamp (Канада) (13 км)
Погода в North Mountain (Канада) (42 км)
Погода в Ingonish Beach (Канада) (51 км)
Погода в East Point (Канада) (71 км)
Погода в Sydney (Канада) (88 км)
Погода в Sydney Rcs (Канада) (88 км)
Погода в St Paul Island (Канада) (103 км)
Погода в Port Hawkesbury (Канада) (103 км)
Погода в Lles de la Madelein (Канада) (111 км)
Погода в Lles de la Madelein (Канада) (111 км)

Пояснения к столбцам:

Ветер - указаны скорость ветра в м/с - средняя за 10 мин, порывы в срок и между сроками (в фигурных скобках) и направление, откуда дует ветер: С - северный, СВ - северо-восточный, В - восточный, ЮВ - юго-восточный, Ю - южный, ЮЗ - юго-западный, З - западный, СЗ - северо-западный.
Видимость - горизонтальная дальность видимости в метрах или километрах. При видимости от 1 до 10 км при отсутствии осадков обычно наблюдается дымка, при ухудшении видимости до 1 км и менее - туман. В сухую погоду видимость может ухудшаться дымом, пылью или мглою.
Явления - указаны атмосферные явления, наблюдавшиеся в срок или в последний час перед сроком; фигурными скобками обозначены явления, наблюдавшиеся между сроками (за 1-3 часа до срока); квадратными скобками обозначены град или гололедные отложения с указанием их диаметра в мм.
Облачность - указаны через наклонную черту общая и нижняя облачность в баллах и высота нижней границы облаков в метрах; квадратными скобками обозначены формы облаков: Ci - перистые, Cs - перисто-слоистые, Cc - перисто-кучевые, Ac - высококучевые, As - высокослоистые, Sc - слоисто-кучевые, Ns - слоисто-дождевые, Cu - кучевые, Cb - кучево-дождевые. Подробнее классификацию облаков см. в Атласе облаков (PDF).
T - Температура воздуха - температура, измеренная на высоте 2 м над землей.
Td - Температура точки росы - температура, при понижении до которой содержащийся в воздухе водяной пар достигнет насыщения.
f - Относительная влажность воздуха - влажноcть воздуха, измеренная на высоте 2 м над землей.
Te - Эффективная температура - температура, которую ощущает одетый по сезону человек в тени. Характеристика душности погоды. При расчете учитывается влияние влажности воздуха и скорости ветра на теплоощущения человека.
Tes - Эффективная температура на солнце - температура, которую ощущает человек, с поправкой на солнечный нагрев. Характеристика знойности погоды. Зависит от высоты солнца над горизонтом, облачности и скорости ветра. Ночью, в пасмурную погоду, а также при ветре 12 м/с и более поправка равна нулю.
P - Атмосферное давление - приведенное к уровню моря атмосферное давление.
Po - Атмосферное давление - измеренное на уровне метеостанции атмосферное давление.
Tmin - Минимальная температура - минимум температуры воздуха на высоте 2 м над землей.
Tmax - Максимальная температура - максимум температуры воздуха на высоте 2 м над землей.
R - Количество осадков - Количество выпавших осадков за период времени, мм. При наведении курсора мыши на число - период времени, за который выпало указанное количество осадков.
R24 - Количество осадков - Количество выпавших осадков за 24 часа, мм.
S - Снежный покров - Высота снежного покрова, см. При наведении курсора мыши на число - состояние снежного покрова и степень покрытия местности в баллах.